This is the latest recevied weather packets stored in our database for station/object KF0EZB. If no packets are shown the sender has not sent any weather packets the latest 10 day(s).
| Time | Temp. | Humidity | Pressure | Rain* | Wind** | Luminosity | Snow |
|---|---|---|---|---|---|---|---|
| 1777996099 | 10.56° C | 56% | 1013.1 hPa | 0 mm | - | 197 W/m² | - |
| 1777995795 | 10.56° C | 56% | 1012.8 hPa | 0 mm | - | 155 W/m² | - |
| 1777995491 | 11.11° C | 56% | 1012.7 hPa | 0 mm | - | 169 W/m² | - |
| 1777995189 | 10.56° C | 57% | 1012.8 hPa | 0 mm | - | 166 W/m² | - |
| 1777994886 | 11.11° C | 56% | 1012.8 hPa | 0 mm | - | 187 W/m² | - |
| 1777994582 | 10.56° C | 56% | 1012.8 hPa | 0 mm | - | 202 W/m² | - |
| 1777994276 | 10.56° C | 56% | 1012.8 hPa | 0 mm | - | 147 W/m² | - |
| 1777993974 | 10.56° C | 57% | 1012.9 hPa | 0 mm | - | 130 W/m² | - |
| 1777993670 | 10.56° C | 56% | 1012.6 hPa | 0 mm | - | 197 W/m² | - |
| 1777993367 | 10.56° C | 56% | 1012.7 hPa | 0 mm | - | 241 W/m² | - |
| 1777993062 | 10.56° C | 58% | 1012.9 hPa | 0 mm | - | 191 W/m² | - |
| 1777992761 | 10° C | 59% | 1012.6 hPa | 0 mm | - | 120 W/m² | - |
| 1777992458 | 10° C | 59% | 1012.6 hPa | 0 mm | - | 95 W/m² | - |
| 1777992156 | 10° C | 59% | 1012.6 hPa | 0 mm | - | 54 W/m² | - |
| 1777991853 | 10° C | 60% | 1012.7 hPa | 0 mm | - | 49 W/m² | - |
| 1777991550 | 10° C | 60% | 1012.5 hPa | 0 mm | - | 33 W/m² | - |
| 1777991247 | 10° C | 59% | 1012.5 hPa | 0 mm | - | 38 W/m² | - |
| 1777990944 | 10° C | 58% | 1012.2 hPa | 0 mm | - | 41 W/m² | - |
| 1777990642 | 10° C | 58% | 1012.4 hPa | 0 mm | - | 30 W/m² | - |
| 1777990339 | 10° C | 57% | 1012.3 hPa | 0 mm | - | 34 W/m² | - |
| 1777990035 | 10° C | 57% | 1012.5 hPa | 0 mm | - | 42 W/m² | - |
| 1777989732 | 10° C | 57% | 1012.4 hPa | 0 mm | - | 37 W/m² | - |
| 1777989428 | 10° C | 57% | 1012 hPa | 0 mm | - | 33 W/m² | - |
| 1777989125 | 10° C | 57% | 1011.9 hPa | 0 mm | - | 39 W/m² | - |
| 1777988820 | 10° C | 57% | 1011.9 hPa | 0 mm | - | 42 W/m² | - |
* Rain latest hour (hover to see other rain measurements)
** Current wind speed in m/s (hover to see current wind gust speed)